Home   Weather   Groningen   Past weeks

Flag for Netherlands Past Weather in Groningen, Netherlands — Yesterday and Last 2 Weeks

Now
75 °F

Mild.


Feels Like: 78 °F
Forecast: 52 / 65 °F
Wind: 12 mph from South

Location: Groningen Eelde Airport

Current Time: Sep 25, 2016 at 4:15:48 PM

Latest Report: Sep 25, 2016 at 3:25 PM


Visibility: N/A

Pressure: 29.95 "Hg

Humidity: 47%

Dew Point: 54 °F

Location of GroningenLocation

Past Weather in Groningen — Graph

°F

Groningen Temperature Yesterday

Maximum temperature yesterday: 72 °F (at 3:25 PM)
Minimum temperature yesterday: 45 °F (at 12:55 AM)
Average temperature yesterday: 58 °F

High & Low Weather Summary for the Past Weeks

 TemperatureHumidityPressure
High86 °F (Sep 13, 2:25 PM)100% (Sep 12, 4:55 AM)30.27 "Hg (Sep 12, 4:55 AM)
Low43 °F (Sep 20, 3:55 AM)42% (Sep 15, 4:55 PM)29.83 "Hg (Sep 15, 4:55 PM)
Average63 °F78%30.04 "Hg
* Reported Sep 10 2:25 PM — Sep 25 2:55 PM, Groningen, Weather by CustomWeather, © 2016

Note: Actual official high and low records may vary slightly from our data, if they occured in-between our weather recording intervals... More about our weather records

Advertising

Groningen Weather History for the Previous 24 Hours

Scroll right to see more
 ConditionsComfort  
Time TempWeatherWind HumidityBarometerVisibility
2:55 PM
Sun, Sep 25
75 °FClear.10 mph47%29.95 "HgN/A
2:25 PM75 °FMild.10 mph50%29.95 "HgN/A
1:55 PM73 °FMild.9 mph53%29.95 "HgN/A
1:25 PM72 °FMild.12 mph57%29.98 "HgN/A
12:55 PM72 °FMild.9 mph57%29.98 "HgN/A
12:25 PM70 °FMild.9 mph60%29.98 "HgN/A
11:55 AM68 °FMild.12 mph60%29.98 "HgN/A
11:25 AM66 °FMild.10 mph60%29.98 "HgN/A
10:55 AM64 °FMild.8 mph64%29.98 "HgN/A
10:25 AM63 °FMild.8 mph68%30.01 "HgN/A
9:55 AM59 °FCool.9 mph72%30.01 "HgN/A
9:25 AM59 °FCool.9 mph72%30.01 "HgN/A
8:55 AM57 °FCool.7 mph72%30.01 "HgN/A
8:25 AM54 °FCool.5 mph82%30.01 "HgN/A
7:55 AM54 °FCool.5 mph82%30.01 "HgN/A
7:25 AM54 °FCool.6 mph82%30.01 "HgN/A
6:55 AM54 °FClear.7 mph82%30.01 "HgN/A
6:25 AM54 °FCool.7 mph82%30.01 "HgN/A
5:55 AM55 °FCool.7 mph77%30.04 "HgN/A
5:25 AM55 °FCool.6 mph77%30.04 "HgN/A
4:55 AM55 °FCool.5 mph77%30.04 "HgN/A
4:25 AM55 °FCool.6 mph77%30.04 "HgN/A
3:55 AM55 °FCool.5 mph77%30.07 "HgN/A
3:25 AM57 °FCool.7 mph72%30.07 "HgN/A
2:55 AM57 °FCool.6 mph72%30.07 "HgN/A
2:25 AM57 °FCool.5 mph77%30.07 "HgN/A
1:55 AM59 °FCool.6 mph72%30.07 "HgN/A
1:25 AM59 °FCool.7 mph72%30.07 "HgN/A
12:55 AM59 °FCool.7 mph72%30.09 "HgN/A
12:25 AM59 °FCool.6 mph72%30.09 "HgN/A
11:55 PM
Sat, Sep 24
59 °FCool.5 mph77%30.09 "HgN/A
11:25 PM59 °FCool.5 mph77%30.09 "HgN/A
10:55 PM59 °FCool.5 mph77%30.09 "HgN/A
10:25 PM61 °FCool.6 mph72%30.12 "HgN/A
9:55 PM61 °FCool.6 mph72%30.12 "HgN/A
9:25 PM61 °FCool.6 mph77%30.12 "HgN/A
8:55 PM63 °FClear.5 mph73%30.12 "HgN/A
8:25 PM61 °FCool.5 mph77%30.12 "HgN/A
7:55 PM61 °FCool.3 mph83%30.12 "HgN/A
7:25 PM64 °FClear.3 mph73%30.12 "HgN/A
6:55 PM66 °FMild.3 mph68%30.12 "HgN/A
6:25 PM70 °FMild.6 mph60%30.12 "HgN/A
5:55 PM70 °FMild.7 mph60%30.12 "HgN/A
5:25 PM72 °FMild.8 mph53%30.15 "HgN/A
4:55 PM72 °FPassing clouds.8 mph53%30.15 "HgN/A
4:25 PM72 °FMild.8 mph50%30.15 "HgN/A
Weather by CustomWeather, © 2016

See weather overviewHow to use our weather pages